TimeEDT,TemperatureF,Dew PointF,Humidity,Sea Level PressureIn,VisibilityMPH,Wind Direction,Wind SpeedMPH,Gust SpeedMPH,PrecipitationIn,Events,Conditions,WindDirDegrees,DateUTC
12:53 AM,57.0,50.0,77,29.97,10.0,Calm,Calm,-,N/A,,Scattered Clouds,0,2013-10-08 04:53:00
1:53 AM,55.9,51.1,84,29.97,10.0,Calm,Calm,-,N/A,,Mostly Cloudy,0,2013-10-08 05:53:00
2:33 AM,55.4,51.8,88,29.99,10.0,Calm,Calm,-,N/A,,Mostly Cloudy,0,2013-10-08 06:33:00
2:53 AM,57.0,52.0,83,29.97,10.0,Calm,Calm,-,N/A,,Overcast,0,2013-10-08 06:53:00
3:53 AM,57.9,52.0,81,29.96,10.0,Calm,Calm,-,N/A,,Overcast,0,2013-10-08 07:53:00
4:53 AM,57.9,53.1,84,29.97,10.0,NNE,3.5,-,N/A,,Overcast,20,2013-10-08 08:53:00
5:37 AM,57.2,53.6,88,29.99,10.0,Calm,Calm,-,N/A,,Overcast,0,2013-10-08 09:37:00
5:53 AM,59.0,54.0,83,29.99,10.0,Calm,Calm,-,N/A,,Overcast,0,2013-10-08 09:53:00
6:53 AM,57.9,55.0,90,30.01,10.0,Calm,Calm,-,N/A,,Overcast,0,2013-10-08 10:53:00
7:53 AM,59.0,55.9,90,30.03,10.0,Calm,Calm,-,N/A,,Overcast,0,2013-10-08 11:53:00
8:53 AM,63.0,50.0,63,30.04,10.0,NE,10.4,-,N/A,,Overcast,50,2013-10-08 12:53:00
9:53 AM,64.9,50.0,58,30.06,10.0,ENE,10.4,-,N/A,,Overcast,60,2013-10-08 13:53:00
10:53 AM,66.9,52.0,59,30.08,10.0,ENE,12.7,-,N/A,,Overcast,60,2013-10-08 14:53:00
11:53 AM,68.0,53.1,59,30.08,10.0,ENE,15.0,-,N/A,,Overcast,60,2013-10-08 15:53:00
12:53 PM,70.0,54.0,57,30.08,10.0,ENE,13.8,-,N/A,,Overcast,70,2013-10-08 16:53:00
1:00 PM,69.8,53.6,56,30.09,10.0,ENE,12.7,-,N/A,,Overcast,60,2013-10-08 17:00:00
1:53 PM,72.0,55.0,55,30.06,10.0,East,10.4,-,N/A,,Mostly Cloudy,90,2013-10-08 17:53:00
2:42 PM,71.6,55.4,57,30.07,10.0,ENE,12.7,-,N/A,,Mostly Cloudy,70,2013-10-08 18:42:00
2:53 PM,72.0,55.0,55,30.05,10.0,ESE,11.5,-,N/A,,Mostly Cloudy,110,2013-10-08 18:53:00
3:53 PM,73.0,57.0,57,30.05,10.0,East,9.2,-,N/A,,Clear,100,2013-10-08 19:53:00
4:53 PM,73.9,57.0,55,30.05,10.0,NE,9.2,-,N/A,,Partly Cloudy,40,2013-10-08 20:53:00
5:53 PM,73.0,57.0,57,30.06,10.0,East,6.9,17.3,N/A,,Mostly Cloudy,100,2013-10-08 21:53:00
6:53 PM,71.1,57.0,61,30.08,10.0,East,8.1,-,N/A,,Mostly Cloudy,100,2013-10-08 22:53:00
7:53 PM,68.0,55.9,65,30.11,10.0,East,12.7,-,N/A,,Overcast,80,2013-10-08 23:53:00
8:53 PM,66.9,55.0,66,30.12,10.0,ENE,11.5,-,N/A,,Overcast,70,2013-10-09 00:53:00
9:00 PM,66.2,55.4,68,30.13,10.0,ENE,12.7,-,N/A,,Overcast,70,2013-10-09 01:00:00
9:53 PM,66.9,55.0,66,30.13,10.0,East,11.5,-,N/A,,Overcast,80,2013-10-09 01:53:00
10:53 PM,66.0,53.1,63,30.13,10.0,East,12.7,18.4,N/A,,Overcast,90,2013-10-09 02:53:00
11:53 PM,64.9,51.1,61,30.13,10.0,East,10.4,17.3,N/A,,Overcast,90,2013-10-09 03:53:00